Flag for Germany Weather past 2 weeks in Warstein, North Rhine-Westphalia, Germany

45 °F

Passing clouds.

Feels Like: 37 °F
Forecast: 43 / 50 °F
Wind: 17 mph from West

Location: Paderborn / Lippstadt

Current Time: Nov 30, 2015 at 6:19:46 AM

Latest Report: Nov 30, 2015 at 5:50 AM

Visibility: N/A

Pressure: 29.95 "Hg

Humidity: 61%

Dew point: 32 °F

Location of WarsteinLocation

Historic Weather in Warstein — Graph


Warstein temperature yesterday

Maximum temperature yesterday: 50 °F (at 6:20 PM)
Minimum temperature yesterday: 37 °F (at 4:20 AM)
Average temperature yesterday: 44 °F

Past Weeks' High & Low Weather Summary

High57 °F (Nov 17, 1:20 PM)100% (Nov 15, 3:20 PM)30.24 "Hg (Nov 15, 3:20 PM)
Low30 °F (Nov 22, 9:50 PM)56% (Nov 24, 10:50 AM)29.36 "Hg (Nov 21, 5:20 AM)
Average42 °F83%29.81 "Hg
* Reported Nov 15 4:20 AM — Nov 30 4:20 AM, Warstein, Weather by CustomWeather, © 2015

Note: Actual official high and low records may vary slightly from our data, if they occured in-between our weather recording intervals... More about our weather records


Warstein weather history for previous 24 hours

Time TempWeatherWind HumidityBarometerVisibility
4:20 AM
Mon, Nov 30
45 °FPassing clouds.15 mph71%29.89 "HgN/A
3:50 AM45 °FPassing clouds.16 mph71%29.89 "HgN/A
3:20 AM45 °FPassing clouds.14 mph76%29.86 "HgN/A
2:50 AM45 °FLight rain. Passing clouds.13 mph76%29.86 "HgN/A
2:20 AM46 °FLight rain. Passing clouds.18 mph71%29.83 "HgN/A
1:20 AM45 °FPassing clouds.16 mph81%29.80 "HgN/A
12:50 AM45 °FLight rain. Partly cloudy.12 mph87%29.80 "HgN/A
11:50 PM
Sun, Nov 29
45 °FRain. Partly cloudy.18 mph93%29.74 "HgN/A
11:20 PM45 °FHeavy rain. Passing clouds.17 mph93%29.74 "Hg5 mi
10:50 PM46 °FHeavy rain. Passing clouds.20 mph87%29.71 "Hg4 mi
9:50 PM50 °FRain. Partly cloudy.32 mph82%29.65 "HgN/A
9:20 PM50 °FPartly cloudy.31 mph76%29.65 "HgN/A
8:50 PM48 °FPartly cloudy.31 mph87%29.65 "HgN/A
8:20 PM48 °FPartly cloudy.26 mph82%29.68 "HgN/A
7:50 PM48 °FPartly cloudy.26 mph82%29.68 "HgN/A
7:20 PM50 °FPartly cloudy.25 mph76%29.71 "HgN/A
6:50 PM50 °FPartly cloudy.24 mph76%29.71 "HgN/A
6:20 PM50 °FPartly cloudy.28 mph76%29.71 "HgN/A
5:50 PM48 °FPartly cloudy.25 mph82%29.71 "HgN/A
5:20 PM48 °FPassing clouds.22 mph82%29.71 "Hg6 mi
4:50 PM48 °FPassing clouds.22 mph82%29.71 "Hg6 mi
4:20 PM46 °FPartly sunny.23 mph87%29.71 "Hg6 mi
3:50 PM48 °FPartly sunny.22 mph82%29.71 "Hg6 mi
3:20 PM46 °FRain showers. Partly sunny.21 mph87%29.74 "Hg3 mi
2:50 PM46 °FSprinkles. Partly sunny.18 mph87%29.74 "HgN/A
2:20 PM46 °FPartly sunny.17 mph82%29.74 "HgN/A
1:50 PM46 °FPartly sunny.17 mph82%29.77 "HgN/A
1:20 PM46 °FPartly sunny.16 mph82%29.77 "HgN/A
12:50 PM46 °FBroken clouds.18 mph82%29.77 "HgN/A
12:20 PM46 °FBroken clouds.17 mph82%29.77 "HgN/A
11:50 AM45 °FLight rain. Broken clouds.18 mph87%29.77 "HgN/A
11:20 AM45 °FSprinkles. Broken clouds.20 mph87%29.77 "HgN/A
10:20 AM43 °FRain. Broken clouds.20 mph93%29.77 "Hg4 mi
9:50 AM45 °FLight rain. Broken clouds.22 mph81%29.77 "HgN/A
9:20 AM45 °FBroken clouds.21 mph81%29.77 "HgN/A
8:50 AM43 °FBroken clouds.22 mph87%29.77 "HgN/A
7:50 AM43 °FRain. Partly cloudy.21 mph87%29.77 "HgN/A
7:20 AM41 °FRain. Partly cloudy.18 mph93%29.77 "HgN/A
6:50 AM41 °FPartly cloudy.18 mph87%29.77 "HgN/A
Weather by CustomWeather, © 2015

See weather overviewHow to use our weather pages